Weather History for EYVI - April, 2014

Change the Weather History Date:

Wednesday, April 9, 2014

  Actual Average Record
Temperature  
Mean Temperature 48 °F -  
Max Temperature 51 °F 55 °F 68 °F (2009)
Min Temperature 44 °F 38 °F 17 °F (2013)
Degree Days  
Heating Degree Days 18    
Moisture  
Dew Point 42 °F    
Average Humidity 81    
Maximum Humidity 100    
Minimum Humidity 52    
Precipitation  
Precipitation 0.00 in 0.07 in - ()
Sea Level Pressure  
Sea Level Pressure 29.73 in    
Wind  
Wind Speed 9 mph ()    
Max Wind Speed 18 mph    
Max Gust Speed -    
Visibility 5.5 miles    
Events Fog , Rain    
Averages and records for this station are not official NWS values.
T = Trace of Precipitation, MM = Missing Value Source: Averaged Metar Reports

Daily Weather History Graph

Daily Weather History Graph

Search for Another Location

Airport or City:

Trip Planner

Search our weather history database for the weather conditions in past years. The results will help you decide how hot, cold, wet, or windy it might be!

Date:

Astronomy

Apr. 09, 2014 Rise Set
Actual Time 6:31 AM EEST 8:10 PM EEST
Civil Twilight 5:54 AM EEST 8:48 PM EEST
Nautical Twilight 5:07 AM EEST 9:35 PM EEST
Astronomical Twilight 4:15 AM EEST 10:28 PM EEST
Moon 1:51 PM EEST (4/9) 4:01 AM EEST (4/9)
Length of Visible Light 14h 53m
Length of Day
13h 38m
Waxing Gibbous, 69% of the Moon is Illuminated
Apr 9
Waxing Gibbous
Apr 15
Full
Apr 22
Last Quarter
Apr 29
New
May 7
First Quarter

Hourly Weather History & Observations

Time (EEST) Temp. Windchill Dew Point Humidity Pressure Visibility Wind Dir Wind Speed Gust Speed Precip Events Conditions
12:00 AM 52 °F - 50 °F 89% 29.71 in 11 mi SW 11.2 mph - - Rain Rain
12:06 AM 51.8 °F - 50.0 °F 94% 29.68 in 2.5 mi West 13.8 mph - N/A Rain Rain Showers
12:20 AM 51.8 °F - 50.0 °F 94% 29.68 in 4.3 mi WNW 5.8 mph - N/A Rain Light Rain Showers
12:50 AM 50.0 °F - 48.2 °F 94% 29.65 in 2.5 mi ENE 3.5 mph - N/A Rain Rain Showers
1:20 AM 50.0 °F - 48.2 °F 94% 29.65 in 2.5 mi ESE 4.6 mph - N/A Rain Light Rain Showers
1:50 AM 50.0 °F - 48.2 °F 94% 29.65 in 4.3 mi SE 4.6 mph - N/A   Overcast
2:20 AM 50.0 °F - 50.0 °F 100% 29.65 in 2.5 mi SE 5.8 mph - N/A Rain Light Rain
2:50 AM 50.0 °F - 50.0 °F 100% 29.62 in 2.5 mi SE 3.5 mph - N/A   Overcast
3:00 AM 50 °F - 49 °F 95% 29.67 in 6 mi South 2.2 mph - - Rain Light Rain
3:09 AM 50.0 °F - 50.0 °F 100% 29.65 in 0.7 mi Variable 2.3 mph - N/A   Overcast
3:20 AM 50.0 °F - 50.0 °F 100% 29.62 in 0.3 mi Variable 2.3 mph - N/A Fog Fog
3:50 AM 50.0 °F - 50.0 °F 100% 29.62 in 1.0 mi South 4.6 mph - N/A   Light Drizzle
4:20 AM 51.8 °F - 51.8 °F 100% 29.62 in 1.1 mi SW 6.9 mph - N/A Rain Light Rain
4:50 AM 46.4 °F 39.2 °F 46.4 °F 100% 29.62 in 0.8 mi West 18.4 mph - N/A Rain Light Rain
5:20 AM 46.4 °F 40.1 °F 44.6 °F 93% 29.65 in 1.6 mi West 15.0 mph - N/A Rain Light Rain
5:50 AM 44.6 °F 38.1 °F 44.6 °F 100% 29.65 in 1.8 mi West 13.8 mph - N/A Rain Light Rain
6:00 AM 45 °F - 44 °F 92% 29.69 in 9 mi West 11.2 mph - - Rain Drizzle
6:20 AM 44.6 °F 38.1 °F 42.8 °F 93% 29.65 in 1.8 mi West 13.8 mph - N/A Rain Light Rain
6:50 AM 44.6 °F 38.1 °F 42.8 °F 93% 29.65 in 2.5 mi West 13.8 mph - N/A Rain Light Rain
7:20 AM 44.6 °F 38.4 °F 42.8 °F 93% 29.65 in 2.5 mi West 12.7 mph - N/A Rain Light Rain
7:50 AM 44.6 °F 37.8 °F 42.8 °F 93% 29.68 in 2.5 mi West 15.0 mph - N/A Rain Light Rain
8:20 AM 44.6 °F 38.4 °F 41.0 °F 87% 29.68 in 4.3 mi West 12.7 mph - N/A Rain Light Rain
8:50 AM 44.6 °F 37.8 °F 41.0 °F 87% 29.68 in 4.3 mi West 15.0 mph - N/A   Overcast
9:00 AM 44 °F - 41 °F 87% 29.73 in 12 mi West 11.2 mph - - Rain Light Rain
9:20 AM 44.6 °F 38.1 °F 41.0 °F 87% 29.68 in 6.2 mi WNW 13.8 mph - N/A   Mostly Cloudy
9:50 AM 44.6 °F 38.4 °F 41.0 °F 87% 29.71 in 6.2 mi West 12.7 mph - N/A   Overcast
10:20 AM 44.6 °F 37.8 °F 41.0 °F 87% 29.71 in 6.2 mi WNW 15.0 mph - N/A   Mostly Cloudy
10:50 AM 46.4 °F 40.7 °F 41.0 °F 81% 29.71 in 6.2 mi West 12.7 mph - N/A   Mostly Cloudy
11:20 AM 46.4 °F 40.1 °F 39.2 °F 76% 29.71 in 6.2 mi West 15.0 mph - N/A   Mostly Cloudy
11:50 AM 46.4 °F 40.4 °F 39.2 °F 76% 29.74 in 6.2 mi West 13.8 mph - N/A   Mostly Cloudy
12:00 PM 46 °F - 39 °F 70% 29.78 in 12 mi West 13.4 mph - -   Mostly Cloudy
12:20 PM 48.2 °F - 39.2 °F 71% 29.74 in 6.2 mi WNW 16.1 mph - N/A   Mostly Cloudy
12:50 PM 48.2 °F - 39.2 °F 71% 29.74 in 6.2 mi West 16.1 mph - N/A   Mostly Cloudy
1:20 PM 48.2 °F - 39.2 °F 71% 29.74 in 6.2 mi West 17.3 mph - N/A   Mostly Cloudy
1:50 PM 48.2 °F - 37.4 °F 66% 29.74 in 6.2 mi WNW 15.0 mph - N/A   Mostly Cloudy
2:20 PM 48.2 °F - 37.4 °F 66% 29.77 in 6.2 mi West 13.8 mph - N/A   Mostly Cloudy
2:50 PM 48.2 °F - 37.4 °F 66% 29.77 in 6.2 mi WNW 12.7 mph - N/A   Overcast
3:00 PM 48 °F - 38 °F 60% 29.80 in 12 mi WNW 11.2 mph - -   Mostly Cloudy
3:20 PM 48.2 °F - 37.4 °F 66% 29.77 in 6.2 mi West 11.5 mph - N/A   Overcast
3:50 PM 48.2 °F - 37.4 °F 66% 29.77 in 6.2 mi NW 11.5 mph - N/A   Overcast
4:20 PM 50.0 °F - 37.4 °F 62% 29.77 in 6.2 mi NW 8.1 mph - N/A   Overcast
4:50 PM 50.0 °F - 37.4 °F 62% 29.77 in 6.2 mi NW 10.4 mph - N/A   Mostly Cloudy
5:01 PM 50.0 °F - 37.4 °F 62% 29.77 in 6.2 mi NNW 9.2 mph - N/A   Mostly Cloudy
5:20 PM 50.0 °F - 37.4 °F 62% 29.77 in 6.2 mi NW 6.9 mph - N/A   Mostly Cloudy
5:50 PM 50.0 °F - 37.4 °F 62% 29.77 in 6.2 mi NW 8.1 mph - N/A   Mostly Cloudy
6:00 PM 49 °F - 37 °F 52% 29.80 in 12 mi WNW 8.9 mph - -   Partly Cloudy
6:20 PM 50.0 °F - 37.4 °F 62% 29.77 in 6.2 mi WNW 8.1 mph - N/A   Mostly Cloudy
6:50 PM 48.2 °F - 37.4 °F 66% 29.77 in 6.2 mi NW 5.8 mph - N/A   Overcast
7:20 PM 48.2 °F - 37.4 °F 66% 29.77 in 6.2 mi NW 5.8 mph - N/A   Mostly Cloudy
7:50 PM 48.2 °F - 37.4 °F 66% 29.80 in 6.2 mi NW 3.5 mph - N/A   Mostly Cloudy
8:20 PM 48.2 °F - 37.4 °F 66% 29.80 in 6.2 mi NW 3.5 mph - N/A   Mostly Cloudy
8:50 PM 46.4 °F 45.2 °F 39.2 °F 76% 29.80 in 6.2 mi Variable 3.5 mph - N/A   Mostly Cloudy
9:00 PM 45 °F - 38 °F 70% 29.85 in 12 mi NW 6.7 mph - - Rain Light Rain
9:20 PM 44.6 °F 40.7 °F 39.2 °F 81% 29.83 in 6.2 mi WNW 6.9 mph - N/A   Mostly Cloudy
9:50 PM 44.6 °F 42.2 °F 37.4 °F 76% 29.83 in 6.2 mi West 4.6 mph - N/A   Overcast
10:20 PM 44.6 °F - 39.2 °F 81% 29.83 in 6.2 mi Variable 2.3 mph - N/A   Overcast
10:50 PM 44.6 °F - 39.2 °F 81% 29.83 in 6.2 mi Variable 2.3 mph - N/A   Overcast
11:20 PM 44.6 °F - 39.2 °F 81% 29.83 in 6.2 mi WNW 2.3 mph - N/A   Overcast
11:50 PM 44.6 °F - 39.2 °F 81% 29.83 in 6.2 mi Variable 2.3 mph - N/A   Overcast